Notices

What's New in latest Release from April 7th, 2021:

- Updated Glossary, including Speed of Maximum Gust, and Total Hourly Precipitation

- Updated national and regional climate services offices contacts and prices information

- Addition of station inventory lists for 1981-2010, 1971-2000, and 1961-1990 Normals.

If you haven't already, please take our survey and provide feedback about our website: https://eccc.sondage-survey.ca/f/LanguageSelection.aspx?s=442ca660-fcf1-47c0-95a9-59707d6fd709

Hourly Data Report for October 17, 2020

CARBERRY CS
MANITOBA
Current Station Operator: ECCC - MSC

49°54'20.900" N
99°21'26.800" W
383.50 m
5010547
71170
WZE

Download Data

Hourly Data (October 2020)
Hourly Data Report for October 17, 2020
TIME
LST
Temp Definition
°C
Dew Point Definition
°C
Rel Hum Definition
%
Precip. Amount Definition
mm

Wind Dir Definition
10's deg

Wind Spd Definition
km/h
Visibility Definition
km
Stn Press Definition
kPa
Hmdx Definition


Wind Chill Definition


Weather Definition


00:00 -9.2 -14.5 65 0.0 28 9   96.35   -14 LegendNANA
01:00 -6.8 -13.5 59 0.0 28 9   96.37   -11 LegendNANA
02:00 -7.6 -13.2 64 0.0 28 8   96.40   -12 LegendNANA
03:00 -7.2 -13.2 62 0.0 29 8   96.39   -11 LegendNANA
04:00 -7.9 -13.0 67 0.0 29 11   96.42   -13 LegendNANA
05:00 -7.5 -12.4 68 0.0 30 13   96.50   -13 LegendNANA
06:00 -9.0 -13.0 73 0.0 30 13   96.55   -15 LegendNANA
07:00 -9.2 -12.8 75 0.0 30 14   96.60   -16 LegendNANA
08:00 -7.9 -11.7 74 0.0 28 10   96.65   -13 LegendNANA
09:00 -3.8 -9.7 63 0.0 31 10   96.69   -8 LegendNANA
10:00 -1.5 -9.5 54 0.0 28 12   96.73   -6 LegendNANA
11:00 0.1 -10.3 46 0.0 27 21   96.73     LegendNANA
12:00 0.6 -10.1 44 0.0 29 27   96.72     LegendNANA
13:00 -0.2 -10.1 47 0.0 29 30   96.74   -7 LegendNANA
14:00 -0.6 -11.1 45 0.0 28 29   96.77   -7 LegendNANA
15:00 -2.5 -10.4 55 0.0 30 30   96.83   -10 LegendNANA
16:00 -2.4 -9.8 57 0.0 29 26   96.88   -9 LegendNANA
17:00 -2.2 -10.0 55 0.0 31 29   96.92   -9 LegendNANA
18:00 -2.0 -9.7 56 0.0 30 18   96.96   -7 LegendNANA
19:00 -2.2 -9.2 59 0.0 29 20   97.01   -8 LegendNANA
20:00 -2.6 -8.3 65 0.0 28 24   97.03   -9 LegendNANA
21:00 -2.8 -8.6 64 0.0 28 23   97.05   -9 LegendNANA
22:00 -2.7 -9.7 59 0.0 28 24   97.09   -9 LegendNANA
23:00 -2.9 -9.8 59 0.0 28 22   97.11   -9 LegendNANA

Notes on Data Quality.

Legend

  • E = Estimated
  • M = Missing
  • NA = Not Available*
  • [empty] = Indicates an unobserved value
Date modified: